STARLINK-34388

Satellite information

Favourite Embed

Satellite Type and Status

PAYLOADIN ORBIT

Key statistics

Satellite STARLINK-34388 at a glance.

Uptime

28

Days in orbit

Revolutions

≈ 15.5

Per day

Orbit

LEO

Low Earth Orbit

Inclination

70.0

Latest

Satellite identification and parameters

Extended collection of information and parameters for STARLINK-34388.

Object identification

Identified? True

Debris? False

Object name: STARLINK-34388

International designator: 2025-123D

Object number (NORAD): 64294

Object ID (CCSDS): 64294

Country: UNITED STATES OF AMERICA (US)

Current information (Y/N): Y

RCS size: LARGE

Orbital parameters

Period: 92.751 minutes

Inclination: 69.9999 deg

SMA: 6787.448 km

Apoapsis: 411.665 km

Periapsis: 406.96 km

RAAN: 112.9751 deg

Eccentricy: 0.0003466

Argument of periapsis: 260.7748 deg

Mean anomaly: 99.3047 deg

Mean motion: 15.52540694 rev/day

Mean motion (dot): 0.00077317 rev/day2

B* drag term: 0.0012463 1/REarth

Two-line elements (TLE)

Creation date: July 5, 2025, 5:45 p.m.

Reference frame: TEME

Reference center: EARTH

Epoch: July 5, 2025, 4:29 a.m. UTC

TLE line 0: 0 STARLINK-34388

TLE line 1: 1 64294U 25123D 25186.18710183 .00077317 00000-0 12463-2 0 9992

TLE line 2: 2 64294 69.9999 112.9751 0003466 260.7748 99.3047 15.52540694 5409

Live tracking on map

Real-time ground track for satellite STARLINK-34388.

In-orbit conjunctions

There are no conjunctions computed for STARLINK-34388, at the moment. Check back to stay up to date, as we update our databases every day.

Go to all conjunctions

Associated space launch

A batch of 26 satellites for the Starlink mega-constellation - SpaceX's project for space-based Internet communication system.

STARLINK-34388 was lifted into orbit during the mission ‘Falcon 9 Block 5 | Starlink Group 15-8’, on board a Falcon 9 space rocket.

The launch took place on June 8, 2025, 2:20 p.m. from Space Launch Complex 4E.

For more information about the launch, click the button.

Launch to space Falcon 9 Block 5 | Starlink Group 15-8
Falcon 9 Block 5 | Starlink Group 15-8

Agency: SpaceX

Status: Launch Successful

Launch date: June 8, 2025, 2:20 p.m. UTC

Rocket: Falcon 9

Launch pad: Space Launch Complex 4E

Location: Vandenberg SFB, CA, USA

...

Latest news about this satellite

News about space launch
Live coverage: SpaceX to launch 26 Starlink satellites on Falcon 9 rocket from Vandenberg SFB

The mission, dubbed Starlink 15-8, will be SpaceX’s 70th Falcon 9 launch of the year. It’s targeting a liftoff from pad 4 East at 6:34 a.m. PDT (9:34 a.m. EDT, 1334 UTC).

News about space launch
Launch Roundup: Falcon 9 to launch crewed mission, Rocket Lab to launch 65th Electron

SpaceX continues to dominate the launch manifest with five missions this week, including a crewed… The post Launch Roundup: Falcon 9 to launch crewed mission, Rocket Lab to launch 65th Electron appeared first on NASASpaceFlight.com.


Newsletter sign-up

Weekly statistics, charts and insights to help you stay on top of the space industry.